[[{"header":{"parameterUnit":"m.s-1","parameterCategory":1,"la1":30.2991,"la2":30.254,"lo1":-89.0895,"lo2":-89.0444,"dy":0.0017,"dx":0.0017,"nx":28,"ny":28,"refTime":"2024-07-28T03:00:00:Z","depth":0,"parameterNumber":2,"parameterNumberName":"U-component_of_WINDS"},"data":[0,0,0,0,0,0,0,0,0,0,0,0,0,0,0,0,0,0,0,0,0,0,0,0,0,0,0,0,0,0,0,0,0,0,0,0,0,0,0,0,0,0,0,0,0,0,0,0,0,0,0,0,0,0,0,0,0,0,-1.207,-1.207,0,-1.2105,-1.2105,-1.2106,-1.2083,-1.2082,-1.2081,-1.208,-1.2116,-1.2118,-1.212,0,0,0,0,0,0,0,0,0,0,0,0,0,-1.1984,-1.1986,-1.207,-1.207,-1.2071,-1.2105,-1.2105,-1.2106,-1.2083,-1.2082,-1.208,-1.2079,-1.2115,-1.2118,-1.212,0,0,0,0,0,0,0,0,0,0,0,0,0,-1.202,-1.1986,-1.207,-1.2063,-1.2063,-1.2105,-1.2105,-1.2106,-1.2083,-1.2082,-1.208,-1.2079,-1.2115,-1.2117,-1.212,-1.217,0,0,-1.2129,-1.2131,0,0,0,0,0,0,0,0,-1.2018,-1.2024,-1.2064,-1.2064,-1.2064,-1.2088,-1.2088,-1.2127,-1.2084,-1.2076,-1.208,-1.2078,-1.2108,-1.2111,-1.2121,-1.2172,-1.2173,-1.213,-1.2131,-1.2133,-1.2133,0,0,0,0,0,0,0,-1.2016,-1.2022,-1.2084,-1.2065,-1.2064,-1.2059,-1.2062,-1.2096,-1.21,-1.2076,-1.2075,-1.2079,-1.2108,-1.2119,-1.2122,-1.2174,-1.2129,-1.2132,-1.2134,-1.2135,-1.2267,-1.2269,0,0,0,0,0,0,-1.2014,-1.202,-1.2083,-1.2085,-1.2037,-1.2062,-1.2066,-1.2082,-1.21,-1.2101,-1.208,-1.2078,-1.2114,-1.2119,-1.2123,-1.2183,-1.2133,-1.2135,-1.2137,-1.2265,-1.2267,-1.2269,0,0,0,0,0,0,-1.2012,-1.202,-1.2081,-1.2052,-1.2059,-1.2065,-1.2083,-1.2083,-1.2094,-1.2103,-1.2104,-1.2091,-1.2113,-1.2119,-1.2159,-1.2184,-1.2137,-1.2139,-1.2263,-1.2266,-1.2268,-1.2302,0,0,0,0,0,0,-1.201,-1.2019,-1.2038,-1.2053,-1.2061,-1.2116,-1.2085,-1.2085,-1.2099,-1.2096,-1.2113,-1.2114,-1.2113,-1.2154,-1.2162,-1.2187,-1.2142,-1.2261,-1.2264,-1.2268,-1.2299,-1.2305,-1.2311,0,0,0,0,0,-1.2007,-1.2046,-1.2039,-1.2047,-1.2085,-1.2117,-1.2122,-1.2119,-1.2101,-1.212,-1.2126,-1.2114,-1.218,-1.2159,-1.2166,-1.2193,-1.2259,-1.2263,-1.2267,-1.2296,-1.2304,-1.2311,0,0,0,0,0,0,-1.2034,-1.2048,-1.204,-1.2085,-1.21,-1.2113,-1.2137,-1.2128,-1.2149,-1.2145,-1.2141,-1.2145,-1.2186,-1.2194,-1.217,-1.2242,-1.2217,-1.2222,-1.2236,-1.2244,-1.225,-1.2247,-1.2144,0,0,0,0,0,-1.2046,-1.2071,-1.2081,-1.212,-1.2128,-1.2132,-1.2146,-1.2142,-1.2158,-1.2164,-1.2172,-1.2188,-1.2212,-1.2228,-1.2251,-1.23,-1.2303,-1.2322,-1.2328,-1.2333,-1.2338,-1.2365,-1.2373,-1.2282,-1.2282,-1.2282,0,0,-1.207,-1.208,-1.2096,-1.2126,-1.2137,-1.2164,-1.2137,-1.2166,-1.2186,-1.2168,-1.2206,-1.2213,-1.223,-1.2274,-1.2294,-1.2282,-1.2364,-1.2338,-1.2342,-1.2345,-1.2369,-1.2378,-1.2386,-1.2285,-1.2284,-1.2284,0,0,-1.2126,-1.2137,-1.217,-1.2182,-1.2199,-1.2201,-1.2209,-1.2224,-1.2228,-1.2266,-1.2253,-1.2277,-1.2318,-1.2331,-1.2343,-1.2405,-1.2394,-1.2413,-1.2445,-1.2471,-1.2478,-1.2485,-1.2507,-1.2515,-1.2418,-1.2418,-1.2418,0,-1.2154,-1.2193,-1.2189,-1.2219,-1.2233,-1.2218,-1.2252,-1.2264,-1.2288,-1.2298,-1.2283,-1.2336,-1.2346,-1.2393,-1.2408,-1.2418,-1.2428,-1.2411,-1.2477,-1.2484,-1.249,-1.2511,-1.2519,-1.242,-1.2419,-1.2419,-1.2419,0,-1.2226,-1.2253,-1.2278,-1.2302,-1.2318,-1.235,-1.2351,-1.2368,-1.2363,-1.2367,-1.2406,-1.2418,-1.2443,-1.2454,-1.245,-1.2501,-1.2492,-1.2478,-1.2452,-1.25,-1.252,-1.2528,-1.2423,-1.2422,-1.2421,-1.2421,0,0,-1.2301,-1.2322,-1.2331,-1.2341,-1.2359,-1.2381,-1.2412,-1.2436,-1.2451,-1.2468,-1.2495,-1.253,-1.2517,-1.2531,-1.2528,-1.255,-1.2599,-1.2533,-1.2534,-1.2545,-1.2656,-1.2667,-1.2676,-1.2592,-1.2593,-1.2595,-1.2654,0,-1.2359,-1.2414,-1.2411,-1.2462,-1.2487,-1.2474,-1.2501,-1.2515,-1.252,-1.2542,-1.2546,-1.2572,-1.2553,-1.2561,-1.2582,-1.2588,-1.2621,-1.2584,-1.2617,-1.2618,-1.2613,-1.2686,-1.2698,-1.2754,-1.2662,-1.2663,-1.2664,0,-1.2434,-1.2453,-1.2507,-1.2521,-1.2532,-1.2556,-1.2578,-1.26,-1.2615,-1.2617,-1.2632,-1.2626,-1.2658,-1.2631,-1.2675,-1.265,-1.2664,-1.2669,-1.2671,-1.2674,-1.2644,-1.2691,-1.2771,-1.278,-1.2676,-1.2675,-1.2675,0,-1.2484,-1.2523,-1.256,-1.257,-1.2587,-1.2605,-1.2613,-1.2627,-1.2642,-1.2661,-1.2671,-1.2694,-1.2707,-1.2725,-1.2725,-1.2705,-1.277,-1.2743,-1.2772,-1.2772,-1.2786,-1.2785,-1.2869,-1.2795,-1.2794,-1.2794,-1.2794,0,-1.2549,-1.2582,-1.2583,-1.2606,-1.2643,-1.2639,-1.2676,-1.2683,-1.2695,-1.2719,-1.2709,-1.2732,-1.2731,-1.2754,-1.2754,-1.2791,-1.2796,-1.2799,-1.2798,-1.28,-1.2799,-1.2808,-1.2804,-1.2796,-1.2796,-1.2796,-1.2795,0,-1.2611,-1.2612,-1.2652,-1.2665,-1.2669,-1.2696,-1.2707,-1.2729,-1.2732,-1.2763,-1.277,-1.2775,-1.2802,-1.2804,-1.2835,-1.2835,-1.288,-1.2875,-1.2874,-1.2873,-1.2902,-1.2899,-1.2995,-1.3007,-1.2924,-1.2925,-1.2926,0,-1.2652,-1.2677,-1.2693,-1.2708,-1.2717,-1.2742,-1.2757,-1.2755,-1.2771,-1.2791,-1.281,-1.2836,-1.2857,-1.29,-1.2907,-1.2931,-1.2927,-1.2959,-1.293,-1.2931,-1.2927,-1.2926,-1.2929,-1.2964,-1.2965,-1.2966,-1.2966,0,-1.2725,-1.2725,-1.2747,-1.2769,-1.2787,-1.2805,-1.2821,-1.2834,-1.2834,-1.2853,-1.288,-1.2896,-1.2927,-1.2953,-1.2976,-1.2985,-1.2976,-1.2975,-1.2983,-1.2985,-1.2983,-1.2985,-1.2889,-1.2973,-1.2972,-1.2972,-1.2972,-1.2971,-1.2778,-1.28,-1.2815,-1.2839,-1.2851,-1.2867,-1.2888,-1.2894,-1.2916,-1.2942,-1.2939,-1.2969,-1.2984,-1.3015,-1.3025,-1.3049,-1.3038,-1.305,-1.3053,-1.3055,-1.3059,-1.298,-1.3053,-1.3053,-1.3053,-1.3053,-1.3052,0,-1.2851,-1.286,-1.2883,-1.2906,-1.2925,-1.2915,-1.2932,-1.2949,-1.2976,-1.2991,-1.3011,-1.3042,-1.3067,-1.3076,-1.31,-1.3118,-1.3114,-1.3124,-1.3123,-1.3125,-1.3067,-1.3057,-1.3127,-1.3127,-1.3127,-1.3127,-1.3127,-1.3127,-1.2892,-1.2928,-1.2929,-1.2972,-1.298,-1.3009,-1.302,-1.3035,-1.3046,-1.3082,-1.3102,-1.3108,-1.312,-1.3145,-1.3168,-1.317,-1.318,-1.3191,-1.3192,-1.3137,-1.3129,-1.3122,-1.3113,-1.3193,-1.3194,-1.3248,-1.3249,-1.3249]},{"header":{"parameterUnit":"m.s-1","parameterCategory":1,"la1":30.2991,"la2":30.254,"lo1":-89.0895,"lo2":-89.0444,"dy":0.0017,"dx":0.0017,"nx":28,"ny":28,"refTime":"2024-07-28T03:00:00:Z","depth":0,"parameterNumber":3,"parameterNumberName":"V-component_of_WINDS"},"data":[0,0,0,0,0,0,0,0,0,0,0,0,0,0,0,0,0,0,0,0,0,0,0,0,0,0,0,0,0,0,0,0,0,0,0,0,0,0,0,0,0,0,0,0,0,0,0,0,0,0,0,0,0,0,0,0,0,0,3.4145,3.4145,0,3.4202,3.4202,3.4203,3.4166,3.4164,3.4162,3.4161,3.4217,3.422,3.4223,0,0,0,0,0,0,0,0,0,0,0,0,0,3.3999,3.4002,3.4144,3.4145,3.4146,3.4202,3.4203,3.4203,3.4166,3.4164,3.4162,3.416,3.4216,3.4219,3.4223,0,0,0,0,0,0,0,0,0,0,0,0,0,3.406,3.4003,3.4144,3.4134,3.4134,3.4202,3.4203,3.4203,3.4167,3.4164,3.4161,3.4159,3.4215,3.4219,3.4224,3.4304,0,0,3.4238,3.424,0,0,0,0,0,0,0,0,3.4057,3.4065,3.4135,3.4135,3.4135,3.4174,3.4172,3.4237,3.4167,3.4154,3.4161,3.4158,3.4204,3.421,3.4226,3.4306,3.4309,3.4238,3.4241,3.4243,3.4244,0,0,0,0,0,0,0,3.4052,3.4063,3.4167,3.4136,3.4136,3.4126,3.4131,3.4184,3.4193,3.4155,3.4152,3.416,3.4204,3.4222,3.4227,3.431,3.4238,3.4242,3.4245,3.4247,3.4456,3.4459,0,0,0,0,0,0,3.4049,3.4059,3.4165,3.4169,3.4089,3.413,3.4137,3.4164,3.4192,3.4194,3.4162,3.4158,3.4215,3.4222,3.4229,3.4323,3.4243,3.4247,3.425,3.4454,3.4457,3.446,0,0,0,0,0,0,3.4046,3.4059,3.4163,3.4113,3.4126,3.4136,3.4166,3.4167,3.4184,3.4198,3.4199,3.4179,3.4213,3.4222,3.4285,3.4325,3.4249,3.4254,3.445,3.4455,3.4458,3.4513,0,0,0,0,0,0,3.4042,3.4058,3.409,3.4114,3.4129,3.4219,3.4169,3.4169,3.4193,3.4188,3.4214,3.4215,3.4212,3.4278,3.429,3.433,3.4257,3.4447,3.4452,3.4457,3.4508,3.4519,3.4528,0,0,0,0,0,3.4037,3.4103,3.4092,3.4105,3.4168,3.4222,3.423,3.4225,3.4196,3.4227,3.4235,3.4215,3.4319,3.4285,3.4298,3.434,3.4444,3.4451,3.4457,3.4504,3.4517,3.4528,0,0,0,0,0,0,3.4082,3.4106,3.4094,3.4169,3.4194,3.4215,3.4254,3.424,3.4272,3.4266,3.4259,3.4265,3.433,3.4341,3.4303,3.4418,3.4377,3.4386,3.4408,3.4421,3.4431,3.4426,3.4261,0,0,0,0,0,3.4101,3.4143,3.4162,3.4226,3.4239,3.4245,3.4268,3.4263,3.4287,3.4297,3.431,3.4334,3.4372,3.4397,3.4433,3.451,3.4514,3.4544,3.4554,3.4563,3.457,3.461,3.4623,3.4481,3.448,3.448,0,0,3.414,3.4158,3.4185,3.4236,3.4254,3.4297,3.4254,3.4301,3.4333,3.4304,3.4364,3.4374,3.44,3.447,3.4501,3.4481,3.4611,3.4571,3.4577,3.458,3.4618,3.4631,3.4643,3.4485,3.4484,3.4483,0,0,3.4232,3.4251,3.4307,3.4326,3.4354,3.4358,3.4371,3.4395,3.4401,3.4461,3.444,3.4476,3.4542,3.4561,3.4579,3.4678,3.466,3.469,3.4742,3.4781,3.4792,3.4802,3.4836,3.4849,3.4698,3.4698,3.4698,0,3.4277,3.4342,3.4337,3.4386,3.4408,3.4385,3.444,3.4458,3.4497,3.4512,3.4489,3.457,3.4586,3.4659,3.4683,3.47,3.4713,3.4687,3.4791,3.4801,3.481,3.4843,3.4855,3.4701,3.4701,3.4701,3.47,0,3.4394,3.444,3.4481,3.4519,3.4546,3.4597,3.4599,3.4626,3.4618,3.4623,3.4684,3.4702,3.4741,3.4758,3.475,3.4829,3.4816,3.4793,3.4751,3.4828,3.4857,3.487,3.4706,3.4705,3.4704,3.4703,0,0,3.4517,3.4551,3.4566,3.4583,3.4612,3.4646,3.4696,3.4734,3.4757,3.4784,3.4825,3.4881,3.4859,3.488,3.4874,3.4908,3.4984,3.4881,3.4881,3.4898,3.507,3.5087,3.5101,3.4972,3.4974,3.4976,3.5068,0,3.461,3.4699,3.4695,3.4777,3.4817,3.4795,3.4839,3.486,3.4866,3.4901,3.4907,3.4946,3.4915,3.4927,3.496,3.4968,3.5018,3.4961,3.5008,3.501,3.5001,3.5117,3.5135,3.5221,3.5079,3.5081,3.5083,0,3.4731,3.4763,3.4849,3.4871,3.4888,3.4927,3.4961,3.4994,3.5018,3.502,3.5043,3.5031,3.508,3.5038,3.5104,3.5066,3.5085,3.5091,3.5094,3.5097,3.505,3.5122,3.5248,3.526,3.5101,3.51,3.5099,0,3.481,3.4874,3.4933,3.4948,3.4976,3.5004,3.5016,3.5037,3.506,3.5089,3.5104,3.5138,3.5157,3.5183,3.5181,3.515,3.5248,3.5206,3.5249,3.5249,3.527,3.5268,3.5399,3.5284,3.5284,3.5284,3.5283,0,3.4914,3.4968,3.4969,3.5006,3.5064,3.5059,3.5116,3.5125,3.5144,3.5181,3.5164,3.5199,3.5194,3.5228,3.5226,3.5281,3.529,3.5291,3.529,3.5292,3.5292,3.5304,3.5297,3.5287,3.5286,3.5286,3.5285,0,3.5012,3.5016,3.5079,3.51,3.5106,3.5148,3.5165,3.5199,3.5203,3.525,3.526,3.5267,3.5306,3.5306,3.5351,3.535,3.5416,3.5408,3.5408,3.5406,3.5449,3.5445,3.5591,3.5609,3.5484,3.5485,3.5486,0,3.5078,3.5119,3.5144,3.5167,3.5182,3.522,3.5243,3.5239,3.5264,3.5293,3.5323,3.5361,3.5391,3.5455,3.5462,3.5496,3.5489,3.5538,3.5493,3.5494,3.5488,3.5485,3.5488,3.5546,3.5547,3.5548,3.5549,0,3.5194,3.5194,3.5228,3.5263,3.5291,3.5318,3.5343,3.5363,3.5361,3.5389,3.543,3.5453,3.5499,3.5536,3.5569,3.558,3.5564,3.5563,3.5575,3.5577,3.5575,3.5575,3.543,3.556,3.5559,3.5558,3.5557,3.5557,3.5277,3.5311,3.5334,3.5372,3.5391,3.5414,3.5447,3.5455,3.5489,3.5526,3.5521,3.5566,3.5587,3.5629,3.5643,3.5677,3.566,3.5677,3.5681,3.5685,3.5689,3.557,3.5683,3.5683,3.5683,3.5682,3.5682,0,3.5391,3.5404,3.544,3.5475,3.5505,3.5488,3.5515,3.554,3.558,3.5601,3.5631,3.5677,3.5713,3.5723,3.5757,3.5782,3.5776,3.5791,3.5789,3.5791,3.5703,3.5689,3.5796,3.5796,3.5796,3.5796,3.5796,3.5796,3.5454,3.551,3.5512,3.5577,3.559,3.5634,3.565,3.5671,3.5688,3.574,3.577,3.5777,3.5793,3.5828,3.586,3.5862,3.5875,3.5893,3.5892,3.5809,3.5798,3.5787,3.5774,3.5896,3.5896,3.5977,3.5978,3.5978]}]]